UFO 4 (USA 108)

Last updated on July 16, 2019, 4:08 a.m. UTC

1 23467U 95003A   19196.76892847 -.00000037  00000-0  00000-0 0  9997
2 23467   9.8838  22.7096 0004446  80.0582 279.5548  1.00273815 89618
UTC
Height (km)
Latitude
Longitude
Inclination
Orbital Period
UTC large
Height (km)
Speed (km/s)
/
Latitude / Longitude
Inclination (degrees)
Orbital Period (minutes)
Azimuth
Elevation
Range (km)
Doppler Factor
iOS Compass Heading
iOS Angle

Next 30 passes for location: Hong Kong

Rise time Rise Azimuth (degrees) Set time Set Azimuth (degrees) Duration Max altitude (degrees)

No matching passes for this satellites